Flag for Mexico Weather past 2 weeks in Merida, Yucatán, Mexico

Now
86 °F

Partly sunny.


Feels Like: 89 °F
Forecast: N/A
Wind: 9 mph from East

Location: Aerop. Internacional Merida - Yuc

Current Time: Mar 3, 2015 at 3:09:45 PM

Latest Report: Mar 3, 2015 at 10:46 AM


Visibility: 7 mi

Pressure: 30.07 "Hg

Humidity: 55%

Dew point: 68 °F

Location of MeridaLocation

Historic Weather in Merida — Graph

°F

Merida temperature yesterday

Maximum temperature yesterday: 91 °F (at 11:48 AM)
Minimum temperature yesterday: 72 °F (at 1:54 AM)
Average temperature yesterday: 80 °F

Past Weeks' High & Low Weather Summary

 TemperatureHumidityPressure
High97 °F (Feb 25, 2:40 PM)100% (Feb 18, 2:54 AM)30.30 "Hg (Feb 18, 2:54 AM)
Low34 °F (Feb 18, 8:26 AM)30% (Feb 25, 2:40 PM)29.56 "Hg (Feb 27, 5:48 AM)
Average76 °F72%30.03 "Hg
* Reported Feb 16 10:46 AM — Mar 3 10:46 AM, Merida, Weather by CustomWeather, © 2015

Note: Actual official high and low records may vary slightly from our data, if they occured in-between our weather recording intervals... More about our weather records

Advertising

Merida weather history for previous 24 hours

 ConditionsComfort  
Time TempWeatherWind HumidityBarometerVisibility
10:46 AM
Tue, Mar 3
86 °FPartly sunny.9 mph55%30.07 "Hg7 mi
8:47 AM81 °FPartly sunny.21 mph74%30.08 "Hg7 mi
8:24 AM79 °FPartly sunny.10 mph79%30.09 "Hg7 mi
7:55 AM75 °FPartly sunny.5 mph89%30.09 "Hg4 mi
7:47 AM75 °FPartly sunny.8 mph89%30.09 "Hg4 mi
6:47 AM72 °FLow clouds.12 mph94%30.07 "Hg4 mi
6:10 AM72 °FSleet. Low clouds.6 mph94%30.06 "Hg3 mi
5:48 AM72 °FPassing clouds.6 mph94%30.05 "Hg6 mi
2:48 AM73 °FClear.8 mph89%30.04 "Hg7 mi
1:45 AM73 °FPassing clouds.8 mph89%30.06 "Hg7 mi
12:45 AM75 °FPassing clouds.9 mph83%30.07 "Hg7 mi
11:46 PM
Mon, Mar 2
75 °FPassing clouds.12 mph83%30.06 "Hg7 mi
10:44 PM77 °FPassing clouds.14 mph79%30.09 "Hg7 mi
9:47 PM79 °FClear.13 mph74%30.09 "Hg7 mi
8:46 PM81 °FClear.6 mph70%30.07 "Hg7 mi
6:43 PM82 °FPassing clouds.13 mph62%30.03 "Hg7 mi
4:45 PM88 °FPartly sunny.14 mph49%30.00 "Hg7 mi
Weather by CustomWeather, © 2015

See weather overviewHow to use our weather pages